Location: Unspecified
(0.0000°N, 0.0000°E)
Time: 08:52:27
(UTC+00:00)

Vanguard 2 - Pass Details

Date: 20 October 2021
Orbit: 554 x 2936 km, 32.9° (Epoch: 06 December)

Event Time Altitude Azimuth Distance (km) Brightness Sun altitude
Rises 13:19:08 0° 262° (W) 3,432 11.2 64.3°
Reaches altitude 10° 13:22:05 10° 244° (WSW) 2,785 11.0 63.6°
Maximum altitude 13:26:55 20° 199° (SSW) 2,621 10.8 62.5°
Drops below altitude 10° 13:33:31 10° 156° (SSE) 3,969 11.3 61.0°
Sets 13:38:59 0° 142° (SE) 5,479 11.8 59.7°
